SCP
0 0 0 0 0 0 0 0 0 0 0 0 1 1 1 2 2 3 3 3 4 5 6 6 5 4 3 3 4 3 3 3 2 2 2 1 1 1 1 0 0 0 1 1
0 0 0 0 0 0 0 0 0 0 0 0 0 1 1 1 2 2 2 3 3 4 5 6 5 4 3 3 3 3 3 2 2 1 1 1 1 0 0 0 0 0 0 0
0 0 0 0 0 0 0 0 0 0 0 0 0 0 1 1 1 1 2 2 3 3 4 4 4 3 3 3 3 2 2 2 1 1 1 1 1 0 0 0 0 1 1 0
0 0 0 0 0 0 0 0 0 0 0 0 0 0 0 1 1 1 2 2 3 3 4 4 4 3 3 2 2 2 2 2 2 2 1 1 1 0 0 0 1 1 1 1
0 0 0 0 0 0 0 0 0 0 0 0 0 0 0 0 1 1 2 2 3 4 5 5 5 4 4 3 2 2 2 2 3 3 2 2 1 1 1 1 1 1 1 1
0 0 0 0 0 0 0 0 0 0 0 0 0 0 0 0 1 1 2 3 4 5 5 5 5 5 4 3 2 2 2 3 3 3 3 3 2 1 1 1 1 1 1 1
0 0 0 0 0 0 0 0 0 0 0 0 0 0 0 0 1 1 2 2 3 3 3 3 3 3 3 2 2 2 3 3 3 4 4 3 3 2 2 1 1 1 1 1
0 0 0 0 0 0 0 0 0 0 0 0 0 0 0 1 1 1 1 2 2 2 2 1 1 1 2 2 2 3 4 4 5 4 4 4 4 3 2 2 1 1 1 1
0 0 0 0 0 0 0 0 0 0 0 0 0 0 1 1 1 1 1 1 1 1 1 0 0 1 1 1 2 3 4 5 5 5 5 5 5 4 3 3 2 1 1 1
0 0 0 0 0 0 0 0 0 0 0 0 0 0 0 1 1 1 1 1 1 0 0 0 0 0 0 0 1 1 2 3 4 4 5 6 6 5 4 4 3 2 1 1
0 0 0 0 0 0 0 0 0 0 0 0 0 0 0 0 1 0 0 0 0 0 0 0 0 0 0 0 0 0 1 1 2 2 3 4 5 5 4 4 3 3 2 2
0 0 0 0 0 0 0 0 0 0 0 0 0 0 0 0 0 0 0 0 0 0 0 0 0 0 0 0 0 0 0 0 0 0 1 2 2 3 3 4 4 3 2 2
0 0 0 0 0 0 0 0 0 0 0 0 0 0 0 0 0 0 0 0 0 0 0 0 0 0 0 0 0 0 0 0 0 0 0 0 0 1 2 2 3 2 2 2
0 0 0 0 0 0 0 0 0 0 0 0 0 0 0 0 0 0 0 0 0 0 0 0 0 0 0 0 0 0 0 0 0 0 0 0 0 0 0 1 1 2 2 2
0 0 0 0 0 0 0 0 0 0 0 0 0 0 0 0 0 0 0 0 0 0 0 0 0 0 0 0 0 0 0 0 0 0 0 0 0 0 0 0 1 1 1 1
0 0 0 0 0 0 0 0 0 0 0 0 0 0 0 0 0 0 0 0 0 0 0 0 0 0 0 0 0 0 0 0 0 0 0 0 0 0 0 0 0 1 1 1
0 0 0 0 0 0 0 0 0 0 0 0 0 0 0 0 0 0 0 0 0 0 0 0 0 0 0 0 0 0 0 0 0 0 0 0 0 0 0 0 0 0 1 1
0 0 0 0 0 0 0 0 0 0 0 0 0 0 0 0 0 0 0 0 0 0 0 0 0 0 0 0 0 0 0 0 0 0 0 0 0 0 0 0 0 0 1 1
0 0 0 0 0 0 0 0 0 0 0 0 0 0 0 0 0 0 0 0 0 0 0 0 0 0 0 0 0 0 0 0 0 0 0 0 0 0 0 0 0 0 0 1
0 0 0 0 0 0 0 0 0 0 0 0 0 0 0 0 0 0 0 0 0 0 0 0 0 0 0 0 0 0 0 0 0 0 0 0 0 0 0 0 0 0 0 0
0 0 0 0 0 0 0 0 0 0 0 0 0 0 0 0 0 0 0 0 0 0 0 0 0 0 0 0 0 0 0 0 0 0 0 0 0 0 0 0 0 0 0 0
0 0 0 0 0 0 0 0 0 0 0 0 0 0 0 0 0 0 0 0 0 0 0 0 0 0 0 0 0 0 0 0 0 0 0 0 0 0 0 0 0 0 0 0
0 0 0 0 0 0 0 0 0 0 0 0 0 0 0 0 0 0 0 0 0 0 0 0 0 0 0 0 0 0 0 0 0 0 0 0 0 0 0 0 0 0 0 0
0 0 0 0 0 0 0 0 0 0 0 0 0 0 0 0 0 0 0 0 0 0 0 0 0 0 0 0 0 0 0 0 0 0 0 0 0 0 0 0 0 0 0 0
0 0 0 0 0 0 0 0 0 0 0 0 0 0 0 0 0 0 0 0 0 0 0 0 0 0 0 0 0 0 0 0 0 0 0 1 1 0 0 0 0 0 0 0
0 0 0 0 0 0 0 0 0 0 0 0 0 0 0 0 0 0 0 0 0 0 0 0 0 0 0 0 0 0 0 0 0 0 1 1 1 0 0 0 0 0 0 0
Wind_Speed
4 6 1 3 3 4 3 5 6 2 4 6 4 3 1 4 7 8 10 11 11 10 9 8 8 8 7 6 5 5 3 4 3 2 2 2 2 2 2 2 1 2 3 4
7 2 6 2 1 3 3 5 5 3 1 7 7 6 3 5 7 9 11 11 11 10 9 9 8 8 7 6 5 5 5 4 4 2 2 2 3 3 3 2 2 2 3 4
4 6 4 1 2 5 5 7 7 8 6 8 9 11 8 7 8 9 10 10 10 10 10 10 9 8 7 6 5 4 3 4 5 4 4 3 4 5 5 5 4 3 3 5
3 3 4 6 5 8 8 4 6 8 11 11 8 12 10 8 10 11 11 10 9 8 8 8 7 7 6 5 4 4 5 6 6 6 6 6 6 7 6 5 4 3 4 5
4 4 6 7 6 8 7 4 6 9 11 11 8 10 8 2 8 10 9 7 5 5 4 3 2 2 2 3 4 5 6 7 7 7 6 7 7 6 5 4 4 5 5 5
3 3 4 6 4 4 2 6 8 9 9 6 2 8 4 7 10 10 8 5 2 1 3 5 6 6 6 7 7 7 7 8 7 8 7 7 7 7 7 6 6 6 5 4
1 2 2 3 8 3 6 9 8 7 5 1 3 6 6 13 14 13 13 14 13 14 13 13 14 13 12 12 11 9 8 7 6 6 6 6 6 7 7 7 6 6 6 5
2 2 4 5 7 10 9 9 9 8 8 8 4 3 11 14 15 16 17 17 18 18 16 16 15 14 14 15 14 13 11 9 7 5 4 5 5 6 5 6 6 6 6 6
6 6 2 1 5 7 7 6 7 10 11 10 6 2 12 13 15 15 16 17 17 16 16 15 15 14 14 15 15 15 14 12 11 9 6 5 5 6 6 6 7 7 5 6
7 9 6 1 4 2 5 6 6 8 8 10 7 7 1 9 10 12 13 14 15 14 15 15 15 15 15 14 14 14 14 13 13 13 11 8 7 6 7 8 8 8 8 7
6 8 9 6 6 8 4 4 6 7 7 10 14 5 8 8 8 9 11 12 13 14 14 13 12 13 14 14 14 14 14 13 13 13 13 12 10 9 8 8 9 9 9 9
4 8 10 9 2 1 3 4 5 7 9 9 13 2 9 9 8 8 10 12 12 13 13 13 12 12 12 13 13 13 13 13 13 13 13 12 12 11 10 10 10 11 11 11
4 7 10 6 6 6 5 3 5 8 9 11 14 2 8 8 8 10 12 14 15 15 15 14 13 13 13 13 12 12 12 13 13 13 12 12 12 12 12 12 12 12 12 12
5 10 12 13 11 9 8 7 7 10 11 12 11 5 8 9 10 11 13 14 15 15 15 14 13 12 11 11 10 10 11 10 11 11 11 11 11 11 11 12 12 13 13 13
5 8 9 11 11 8 6 9 9 8 9 10 9 8 9 10 12 13 14 16 17 16 14 12 11 10 9 9 9 9 9 9 8 9 10 10 10 10 10 11 11 12 13 14
3 7 8 11 6 2 8 12 8 7 7 6 3 3 8 11 10 13 15 17 18 18 17 17 16 15 14 13 13 12 13 12 11 11 12 11 12 12 12 11 12 12 12 13
4 6 7 8 3 8 5 11 9 5 4 5 4 7 12 14 13 14 17 20 19 19 20 20 20 19 18 18 17 16 16 15 14 14 14 13 13 12 12 12 12 12 12 12
6 6 5 9 10 6 9 6 7 3 2 1 4 10 13 16 18 19 21 19 18 21 23 23 22 21 21 21 20 19 18 17 16 16 15 15 14 14 13 12 12 11 10 10
6 6 7 7 10 7 6 7 11 11 12 7 10 18 21 22 24 20 17 21 24 25 24 23 23 24 23 22 21 21 20 19 18 18 17 16 16 15 14 14 13 11 10 10
5 5 6 6 8 4 7 9 12 13 10 1 17 22 23 25 21 18 21 24 24 24 23 23 23 24 23 22 21 21 21 20 19 19 18 17 16 15 15 15 14 13 11 11
8 5 7 8 6 5 6 11 14 12 12 19 22 22 23 22 21 24 26 26 25 25 25 24 24 22 21 21 21 22 21 21 20 18 18 18 16 15 15 15 13 13 13 12
8 7 7 7 7 3 8 12 11 14 19 20 22 22 23 23 25 25 26 26 26 25 25 25 22 21 20 19 20 21 21 20 19 18 18 17 17 16 14 14 13 13 13 13
5 6 6 6 5 4 8 12 14 16 20 21 20 22 24 25 27 27 26 26 25 25 24 22 22 22 19 19 19 21 20 19 19 18 18 17 17 15 14 14 14 13 12 12
4 1 4 6 5 8 14 14 16 18 20 21 21 23 25 27 27 27 25 24 25 24 23 22 22 22 21 20 20 20 20 19 19 19 17 15 14 14 14 12 13 13 12 11
2 1 5 8 9 13 12 16 19 19 20 21 21 23 25 26 27 27 25 25 23 23 22 21 21 21 22 21 21 21 20 19 19 18 16 13 13 13 12 12 11 12 11 8
2 2 6 8 12 15 18 18 20 20 21 22 24 25 24 25 26 27 25 24 24 24 23 23 22 22 22 22 22 20 19 18 17 15 14 11 9 10 10 11 12 13 12 7
Wind_Direction
234 246 338 31 340 344 302 271 269 293 359 309 315 317 171 194 201 195 196 191 188 178 158 159 161 155 153 156 163 175 180 161 189 196 245 255 270 284 283 283 318 304 324 331
216 93 36 353 232 236 268 272 266 244 337 303 300 288 213 205 212 207 201 197 195 184 171 169 169 164 162 157 158 168 176 170 196 182 237 274 300 285 301 283 247 277 312 316
343 46 18 279 232 283 293 297 308 310 306 261 272 266 223 204 211 216 219 216 212 203 191 179 178 173 170 172 179 183 185 191 210 211 228 223 236 249 239 244 240 258 296 301
294 6 326 301 305 313 299 340 308 300 293 292 290 289 272 228 225 226 223 221 224 213 204 180 178 183 190 195 204 208 217 222 221 224 241 262 280 291 302 292 292 288 278 295
317 330 307 300 336 318 331 343 294 293 292 285 269 273 290 271 270 262 243 233 242 221 204 176 194 241 271 283 275 257 244 240 233 234 239 251 266 284 290 285 270 279 284 283
311 296 303 328 330 312 303 262 251 252 262 260 21 301 316 30 359 346 3 12 343 345 52 32 8 353 340 326 308 290 270 257 246 238 242 248 269 278 283 274 280 278 289 290
87 129 94 320 309 267 275 285 279 265 251 317 87 282 48 43 28 25 30 34 38 40 37 30 22 15 5 356 344 329 312 296 282 258 249 248 255 261 256 263 267 281 298 305
305 353 34 356 339 320 307 292 280 297 303 314 271 264 83 62 54 50 52 52 51 49 47 44 37 32 26 20 13 6 356 345 335 313 287 267 254 253 254 245 270 278 292 307
317 322 356 347 323 312 302 287 315 289 279 279 279 151 121 66 62 56 54 51 49 46 43 41 37 34 30 28 24 20 15 11 5 357 339 304 282 272 273 261 249 264 273 285
299 298 314 9 246 139 316 314 281 278 288 289 282 260 43 43 51 52 48 44 39 35 32 27 24 20 17 17 17 16 16 16 12 9 359 348 323 294 275 269 270 273 275 274
285 289 298 304 333 333 283 251 286 282 290 295 293 320 64 64 53 41 37 29 24 18 16 14 13 8 5 4 3 2 1 1 2 2 358 354 346 329 306 282 274 269 267 266
299 291 296 304 88 197 290 328 312 306 303 289 285 341 86 79 56 25 11 6 3 359 357 355 356 354 354 354 353 351 348 347 347 346 342 343 341 339 330 316 298 281 268 260
304 278 285 277 178 194 254 274 290 299 285 280 287 55 90 62 33 10 356 348 344 341 340 340 342 342 343 342 340 338 336 337 335 333 329 330 329 330 329 325 315 297 278 264
277 266 278 295 312 318 300 306 306 286 290 295 312 56 74 26 1 348 339 332 326 323 324 323 324 324 324 322 322 320 318 319 320 320 317 314 312 314 316 316 314 306 291 272
265 266 275 283 291 293 335 357 351 339 335 319 358 49 32 2 341 327 320 315 309 306 303 298 292 289 284 281 280 279 280 281 285 292 293 292 294 296 299 301 303 303 294 278
291 292 292 279 287 290 70 26 19 23 0 359 19 65 6 333 314 300 294 292 291 293 296 297 294 291 289 286 282 276 271 268 264 265 270 273 279 286 290 293 295 297 296 287
312 299 292 298 341 243 93 25 15 42 31 358 350 330 317 305 296 290 291 294 295 299 303 306 306 305 303 299 296 289 283 277 271 268 267 262 260 265 272 281 289 296 301 298
348 322 289 300 297 299 78 54 18 336 226 249 309 307 302 300 305 304 298 306 316 317 314 310 307 304 302 300 299 297 292 286 279 276 275 271 268 268 267 270 275 283 291 296
15 333 314 320 310 109 116 26 353 314 280 240 305 321 322 321 312 305 326 333 319 311 308 306 304 303 302 301 298 294 290 285 279 276 276 274 271 270 269 268 271 276 280 285
26 351 332 338 316 352 58 4 327 298 273 328 325 322 322 320 313 319 326 316 310 308 306 304 303 301 298 297 297 293 289 285 281 280 277 275 271 267 266 266 267 270 274 275
353 359 2 335 326 74 21 337 322 308 327 330 320 318 317 316 311 310 312 311 310 306 305 304 302 301 300 300 296 290 286 283 282 282 278 273 269 265 262 262 261 261 263 268
346 347 360 334 329 35 8 333 329 315 315 314 315 314 313 311 308 309 310 310 308 307 306 307 305 304 304 301 297 291 286 285 284 281 276 270 265 262 261 258 256 255 257 260
16 6 343 337 334 345 327 315 313 317 313 313 312 312 312 310 309 310 310 309 308 307 307 308 306 305 302 298 294 289 287 285 283 279 274 268 263 256 255 256 255 250 244 250
123 285 300 292 284 302 311 310 320 318 312 310 309 309 309 308 309 310 309 309 308 308 309 308 305 302 298 295 291 286 285 282 278 275 272 268 261 255 251 248 248 246 243 241
79 256 291 283 308 311 309 323 322 316 312 309 308 308 309 309 308 309 308 308 307 307 307 307 304 300 297 296 293 290 287 284 279 275 268 262 257 253 254 253 249 249 245 244
171 315 315 318 326 314 314 320 316 314 313 313 313 311 310 309 308 309 308 308 307 306 307 306 304 300 298 296 293 291 288 284 278 273 267 258 248 247 247 249 244 223 228 190